Wind_Speed
15 18 22 25 29 32 34 35 36 39 39 40 41 42 41 37 32 31 30 30 29 27 26 27 29 29 28 26 25 26 27 29 38 32 27 25 25 22 22 25 26 26 28
18 21 25 30 33 34 35 36 37 38 39 40 40 39 36 34 31 29 30 29 28 27 26 28 30 30 31 29 29 28 28 30 35 35 29 26 25 25 25 26 30 29 28
21 24 29 32 32 33 35 36 36 38 39 39 37 35 35 31 29 30 29 29 28 29 31 32 31 30 32 31 31 29 30 32 32 33 31 26 27 25 27 27 29 31 31
23 28 30 31 32 34 35 36 36 37 39 37 34 34 30 29 31 33 33 30 30 32 34 35 36 37 32 32 33 34 31 32 33 31 30 29 26 23 25 25 31 30 32
26 29 30 31 33 34 35 36 37 38 36 34 32 28 27 31 31 31 32 35 38 39 40 41 41 41 38 37 36 35 33 33 37 35 33 27 26 24 26 23 27 27 29
28 29 30 32 33 35 36 37 38 36 33 30 28 29 31 31 31 30 31 34 36 41 42 42 41 42 43 37 39 38 43 42 37 38 35 30 25 24 24 26 23 28 28
28 30 30 31 34 35 37 39 36 32 32 28 28 29 30 31 31 31 33 35 36 40 41 39 40 37 36 37 39 33 33 32 30 31 35 35 31 28 24 22 25 26 28
29 30 29 32 35 37 38 36 32 31 31 30 32 32 33 32 31 33 31 35 36 40 42 43 43 40 37 31 38 31 28 32 30 31 29 25 23 19 22 23 23 26 25
28 28 30 33 36 37 37 33 30 33 33 32 32 32 29 31 29 29 33 37 41 44 44 43 46 35 33 27 28 28 27 25 24 24 25 28 31 27 25 21 26 25 22
28 29 32 34 35 36 33 30 32 32 31 31 30 26 28 29 28 32 33 38 40 40 40 40 36 32 23 19 21 25 22 23 19 19 21 23 23 27 27 25 27 25 25
27 30 33 34 36 32 28 30 30 31 29 29 27 28 28 29 28 28 30 36 37 37 32 28 19 16 13 14 14 16 18 15 18 19 18 21 22 21 26 28 29 28 26
28 32 34 35 33 28 30 30 29 30 29 28 28 30 27 27 27 28 31 31 31 27 22 16 7 1 6 8 9 13 14 16 18 18 17 17 14 20 20 26 28 28 28
30 33 34 34 27 28 30 30 30 29 28 27 29 28 30 27 28 30 32 29 24 20 15 9 6 2 1 3 5 7 9 14 18 22 18 17 14 12 13 17 21 19 16
31 33 35 26 27 31 28 29 29 27 26 29 27 26 29 24 27 30 32 31 24 19 14 6 5 3 2 2 2 7 10 8 11 13 11 12 7 4 15 14 15 19 19
30 31 30 26 31 29 28 28 25 22 22 23 23 25 23 26 28 27 27 29 25 17 13 7 1 2 3 4 3 9 8 7 11 14 12 11 7 11 14 15 17 21 20
30 30 29 29 27 27 29 29 22 20 20 18 17 21 25 26 25 25 24 24 20 16 8 7 4 2 4 4 7 11 3 7 11 14 15 13 10 18 19 18 20 20 18
28 28 27 29 26 28 27 26 26 26 20 17 18 22 20 27 25 22 22 19 15 13 9 4 4 3 5 5 4 6 10 9 8 13 16 12 21 20 15 12 13 15 15
27 24 26 27 25 25 24 23 23 23 23 23 20 23 23 27 24 21 20 18 17 16 14 12 6 3 6 5 4 1 5 8 14 15 18 17 17 16 14 14 17 18 19
27 23 25 23 23 23 22 21 21 20 20 22 23 25 25 28 26 23 23 20 19 18 16 13 9 5 3 4 5 5 6 4 8 14 14 15 16 14 12 12 13 14 16
23 22 23 21 22 22 22 21 20 19 20 21 24 24 26 29 29 29 23 21 19 18 16 14 11 8 4 6 7 8 8 11 12 14 15 15 14 15 14 12 13 14 17
22 23 22 21 22 21 22 20 18 18 17 21 22 24 23 25 26 27 24 20 19 18 15 14 13 10 8 6 9 10 11 13 12 14 17 17 17 15 15 13 14 15 18
22 20 21 20 21 21 21 19 18 19 18 21 24 25 24 27 27 25 22 22 21 18 14 14 14 12 11 10 10 14 15 15 17 18 17 19 20 19 18 16 16 19 19
20 19 20 19 21 20 20 21 18 18 19 21 24 22 24 27 28 26 24 25 23 20 16 14 13 12 12 13 13 15 19 18 17 19 19 19 21 23 22 19 19 20 20
19 17 18 17 21 20 21 20 20 20 20 22 22 19 26 29 30 29 29 28 26 23 20 15 11 10 12 14 16 17 18 23 21 19 20 20 20 24 23 21 21 22 23
16 16 16 17 18 22 24 22 19 20 21 21 19 24 29 31 30 31 32 31 30 28 23 17 11 6 7 11 13 17 20 24 25 22 20 20 17 18 19 24 23 24 25
15 14 16 17 17 19 22 23 21 20 21 23 23 28 27 28 29 32 34 34 33 30 26 22 16 10 4 3 8 12 19 24 28 23 20 20 21 21 23 25 27 26 25
Wind_Direction
285 294 303 311 313 314 315 315 315 314 314 313 312 311 309 308 307 303 298 296 291 285 283 288 286 282 276 271 266 263 258 254 262 271 270 272 273 267 256 252 253 256 257
299 306 314 317 316 314 313 314 314 313 313 313 313 310 310 309 309 305 302 297 291 284 282 279 275 275 277 279 272 265 260 256 259 266 268 265 264 265 259 257 258 258 258
307 313 316 314 312 312 313 315 315 314 314 313 313 313 313 313 314 310 303 297 288 282 283 282 276 272 270 270 267 264 266 265 258 261 267 265 264 261 265 258 258 256 251
310 314 314 314 314 315 316 316 315 315 315 316 314 314 313 316 310 306 305 295 290 292 294 291 287 281 271 265 261 262 260 257 259 256 264 266 262 260 256 257 254 256 251
314 314 315 316 316 316 318 318 317 317 318 317 316 315 314 312 313 311 305 299 296 294 291 289 287 288 284 264 259 255 252 253 254 255 260 260 255 250 250 250 252 257 254
313 315 317 318 319 320 320 321 321 320 320 319 321 319 318 317 315 313 303 300 296 296 294 292 287 287 279 274 257 253 253 248 251 250 254 251 250 249 250 254 253 252 254
316 319 321 321 320 322 324 325 323 322 323 320 320 320 319 316 317 314 307 301 299 298 294 290 289 284 279 285 270 258 252 254 252 265 258 256 265 251 252 252 249 246 245
320 320 322 323 324 326 327 326 326 329 327 323 322 322 319 317 320 315 310 305 302 300 299 297 292 290 275 279 253 258 252 254 251 246 253 258 257 259 249 252 245 246 237
321 323 325 326 325 326 327 328 331 332 329 323 321 322 321 321 321 318 314 311 306 307 303 304 292 284 273 275 248 250 253 254 255 253 250 254 259 258 249 244 235 235 236
326 326 326 327 326 325 325 329 334 328 322 323 324 324 325 324 328 328 316 315 315 317 312 315 293 271 264 255 245 241 244 250 254 251 255 246 237 248 246 235 233 232 223
325 324 326 328 326 326 330 335 327 323 323 324 325 329 331 332 327 327 324 325 323 324 331 333 312 263 241 235 237 241 244 256 255 256 251 250 252 240 234 223 228 231 230
324 327 328 328 326 334 338 332 331 333 329 327 327 330 334 330 331 336 334 332 333 336 344 345 347 179 205 231 234 244 256 259 255 251 246 260 238 237 231 224 215 227 230
326 329 329 328 333 332 333 335 334 334 330 329 326 327 328 334 341 341 339 339 347 338 349 2 29 64 148 251 265 259 272 259 235 252 242 232 247 211 205 198 209 205 227
327 330 331 332 332 335 338 339 337 334 334 333 329 328 333 344 344 338 335 340 332 346 346 326 319 321 315 259 309 298 300 299 212 219 217 217 243 183 172 189 185 172 163
329 332 335 333 330 338 342 338 337 338 336 331 330 333 341 344 340 333 338 337 339 326 329 333 300 288 310 304 304 318 326 226 208 214 212 199 224 166 172 178 179 153 149
331 334 338 332 339 344 338 339 350 346 342 338 338 341 344 343 338 339 339 336 343 337 308 325 350 337 323 318 334 352 15 175 202 197 201 203 216 168 160 168 156 170 168
331 332 337 337 346 338 341 346 344 351 353 353 352 351 347 346 344 344 343 345 356 7 24 316 311 295 276 309 324 353 1 120 157 186 191 179 154 157 152 143 155 148 165
331 334 340 343 341 341 346 348 349 347 350 352 352 354 352 356 355 354 352 356 3 9 14 16 17 299 275 285 283 257 344 112 122 131 145 152 160 173 174 176 178 189 185
333 342 341 341 340 347 351 352 352 352 353 352 352 353 358 354 0 1 359 359 356 359 359 359 357 339 325 248 242 249 187 195 146 149 157 167 174 180 185 193 192 181 178
336 344 343 342 347 352 355 353 352 357 355 356 357 358 355 345 355 356 353 350 349 352 349 346 343 330 294 257 231 232 214 190 193 192 186 184 188 194 185 177 182 181 179
339 343 348 349 349 353 354 350 350 354 352 353 356 355 354 350 352 347 349 348 348 345 340 335 330 318 295 249 228 216 213 210 210 214 204 200 195 185 178 182 184 183 178
340 345 350 352 349 353 351 352 352 350 348 348 347 347 350 354 350 347 348 349 349 344 337 328 319 306 288 265 233 216 207 205 207 209 212 202 196 190 183 186 186 184 188
342 347 352 353 353 349 353 358 358 358 354 350 350 352 350 347 351 351 350 352 353 349 342 330 312 296 277 264 245 222 210 202 201 204 202 191 186 190 190 188 188 190 189
343 350 355 357 359 356 356 357 358 359 356 355 353 356 352 354 355 358 0 359 358 356 353 346 327 295 276 259 244 228 212 201 199 197 195 197 195 195 193 190 190 192 189
346 353 357 357 356 3 4 2 1 2 5 2 359 353 355 359 2 4 4 4 4 3 3 3 357 329 272 256 242 224 211 200 196 193 192 195 199 206 205 197 189 194 197
350 356 360 356 356 360 1 4 5 6 6 360 354 357 359 2 5 6 7 8 9 10 12 18 30 39 54 240 221 204 196 192 188 187 190 199 202 206 208 213 195 195 199
Height
1527 1526 1523 1520 1516 1511 1506 1502 1497 1492 1486 1481 1475 1469 1464 1459 1455 1451 1447 1443 1440 1438 1437 1434 1432 1432 1431 1430 1428 1427 1426 1425 1416 1418 1420 1420 1420 1421 1422 1424 1426 1427 1427
1522 1520 1517 1513 1508 1504 1499 1495 1490 1484 1478 1472 1466 1460 1454 1450 1446 1442 1438 1435 1432 1429 1427 1426 1423 1423 1420 1419 1418 1418 1417 1415 1411 1409 1412 1414 1414 1413 1414 1415 1416 1417 1418
1516 1513 1510 1507 1502 1497 1492 1487 1481 1475 1469 1463 1457 1451 1446 1441 1437 1433 1429 1426 1423 1421 1418 1416 1414 1413 1411 1409 1408 1407 1406 1404 1403 1402 1402 1404 1405 1407 1405 1406 1407 1407 1408
1511 1508 1504 1500 1495 1489 1484 1479 1473 1467 1460 1454 1448 1442 1438 1432 1428 1424 1420 1417 1415 1412 1409 1406 1403 1401 1399 1398 1398 1397 1396 1395 1395 1395 1394 1395 1396 1398 1399 1398 1397 1399 1400
1506 1502 1498 1493 1488 1482 1476 1470 1464 1458 1451 1446 1440 1435 1430 1426 1421 1416 1413 1409 1405 1401 1397 1393 1390 1388 1386 1384 1384 1384 1386 1385 1384 1385 1385 1386 1387 1390 1389 1391 1390 1391 1392
1500 1496 1492 1486 1480 1474 1468 1462 1455 1449 1443 1438 1433 1428 1422 1418 1414 1409 1405 1401 1396 1391 1385 1382 1378 1376 1374 1372 1371 1372 1371 1372 1372 1374 1375 1375 1378 1380 1381 1382 1384 1384 1384
1495 1490 1485 1480 1473 1467 1460 1453 1446 1440 1435 1431 1426 1421 1415 1410 1406 1401 1396 1392 1386 1380 1375 1370 1367 1364 1361 1359 1357 1360 1362 1363 1361 1364 1364 1365 1367 1371 1375 1375 1376 1377 1377
1489 1484 1479 1473 1466 1459 1453 1446 1439 1435 1429 1424 1419 1414 1408 1403 1398 1393 1388 1383 1376 1369 1364 1359 1354 1350 1348 1347 1347 1349 1351 1354 1355 1358 1358 1358 1360 1362 1364 1367 1369 1370 1372
1483 1478 1473 1467 1460 1453 1446 1439 1434 1429 1423 1418 1413 1407 1402 1396 1392 1386 1380 1374 1366 1358 1350 1343 1337 1335 1336 1337 1338 1341 1343 1344 1347 1348 1350 1351 1352 1354 1357 1359 1362 1364 1366
1478 1472 1467 1461 1454 1447 1440 1434 1428 1424 1418 1413 1407 1402 1396 1391 1384 1379 1374 1366 1357 1346 1339 1329 1321 1323 1325 1329 1332 1333 1336 1338 1340 1341 1343 1344 1345 1347 1350 1352 1356 1357 1359
1472 1467 1461 1455 1447 1441 1435 1429 1424 1419 1413 1407 1402 1397 1390 1385 1379 1374 1368 1359 1350 1340 1330 1320 1313 1316 1320 1323 1326 1329 1330 1333 1334 1335 1336 1337 1337 1339 1341 1344 1347 1351 1353
1467 1461 1455 1449 1442 1435 1430 1424 1419 1414 1408 1402 1396 1390 1385 1379 1375 1368 1362 1354 1345 1336 1329 1323 1319 1319 1320 1322 1324 1326 1327 1328 1329 1329 1331 1330 1332 1333 1335 1337 1340 1345 1348
1462 1456 1450 1443 1437 1432 1426 1420 1414 1409 1404 1398 1392 1386 1381 1375 1369 1363 1356 1349 1341 1335 1331 1327 1324 1323 1322 1322 1323 1323 1322 1322 1323 1325 1325 1328 1329 1329 1331 1333 1338 1342 1344
1457 1451 1445 1438 1433 1428 1422 1417 1411 1406 1400 1394 1389 1384 1377 1372 1367 1360 1353 1345 1338 1334 1329 1327 1326 1325 1323 1322 1322 1321 1320 1316 1318 1322 1325 1327 1327 1326 1331 1335 1336 1341 1345
1453 1447 1440 1435 1430 1424 1419 1414 1408 1403 1398 1392 1387 1381 1375 1369 1364 1358 1351 1344 1337 1333 1329 1326 1325 1325 1324 1323 1321 1319 1316 1316 1318 1320 1324 1327 1329 1330 1333 1336 1338 1342 1348
1449 1443 1437 1432 1426 1421 1416 1409 1405 1400 1395 1390 1385 1380 1373 1369 1362 1355 1349 1342 1336 1329 1328 1326 1325 1324 1324 1323 1321 1318 1315 1314 1316 1320 1323 1327 1329 1331 1334 1338 1339 1347 1351
1445 1440 1434 1429 1423 1418 1413 1407 1400 1395 1392 1387 1382 1377 1372 1366 1359 1352 1346 1340 1335 1330 1326 1324 1324 1324 1323 1322 1321 1319 1317 1316 1317 1319 1323 1327 1330 1334 1338 1341 1345 1348 1354
1443 1437 1432 1426 1421 1416 1411 1405 1400 1394 1389 1384 1380 1375 1369 1363 1357 1350 1344 1339 1334 1330 1327 1324 1323 1322 1322 1322 1321 1321 1320 1319 1320 1322 1325 1330 1334 1338 1340 1344 1348 1351 1355
1439 1434 1429 1424 1419 1414 1409 1404 1399 1394 1389 1384 1378 1373 1367 1362 1356 1350 1344 1339 1335 1331 1327 1325 1323 1321 1320 1320 1321 1321 1322 1324 1325 1327 1330 1333 1337 1340 1342 1345 1348 1352 1355
1436 1432 1427 1422 1417 1412 1407 1402 1398 1393 1388 1384 1378 1372 1366 1361 1354 1348 1344 1339 1334 1330 1327 1324 1321 1320 1319 1318 1319 1320 1321 1323 1326 1329 1331 1334 1337 1340 1343 1346 1349 1353 1356
1434 1430 1425 1420 1416 1411 1406 1401 1397 1393 1388 1383 1378 1373 1368 1362 1355 1349 1343 1338 1333 1328 1325 1322 1319 1317 1316 1316 1316 1317 1319 1321 1324 1327 1330 1333 1337 1340 1343 1347 1350 1353 1357
1432 1428 1423 1419 1414 1410 1405 1401 1396 1392 1387 1382 1377 1372 1366 1361 1354 1348 1342 1336 1330 1325 1322 1318 1315 1313 1311 1311 1311 1313 1315 1318 1321 1324 1327 1331 1335 1339 1343 1346 1349 1354 1357
1431 1426 1422 1418 1414 1409 1404 1400 1395 1391 1386 1381 1376 1371 1365 1360 1352 1346 1340 1333 1327 1322 1317 1313 1310 1307 1306 1305 1306 1307 1310 1313 1317 1320 1324 1328 1332 1337 1341 1345 1349 1353 1357
1429 1425 1421 1417 1413 1408 1404 1399 1395 1390 1386 1381 1375 1371 1365 1358 1351 1344 1337 1330 1324 1317 1312 1307 1304 1301 1299 1298 1299 1301 1304 1309 1313 1316 1321 1325 1329 1334 1339 1343 1348 1352 1356
1428 1424 1420 1417 1413 1409 1404 1399 1394 1390 1386 1381 1376 1371 1364 1357 1350 1343 1336 1329 1321 1314 1307 1302 1297 1295 1292 1291 1291 1294 1298 1303 1309 1313 1318 1322 1327 1332 1336 1341 1345 1350 1354
1427 1423 1420 1417 1413 1409 1405 1400 1395 1390 1386 1381 1376 1371 1365 1358 1351 1344 1336 1328 1319 1311 1304 1298 1293 1290 1288 1286 1286 1289 1293 1298 1305 1310 1315 1319 1324 1328 1332 1337 1342 1347 1352